Wahoo, NE

10:55 PM CDT on June 28, 2017 (GMT -0500)
Wahoo Municipal

Weather History for KAHQ - March, 2012

Change the Weather History Date:

Friday, March 9, 2012

  Actual Average Record
Temperature  
Mean Temperature 44 °F -  
Max Temperature 65 °F 49 °F 79 °F (1977)
Min Temperature 23 °F 25 °F 8 °F (1982)
Degree Days  
Heating Degree Days 21    
Moisture  
Dew Point 20 °F    
Average Humidity 48    
Maximum Humidity 84    
Minimum Humidity 14    
Precipitation  
Precipitation 0.00 in - - ()
Sea Level Pressure  
Sea Level Pressure 30.45 in    
Wind  
Wind Speed 10 mph (South)    
Max Wind Speed 20 mph    
Max Gust Speed 26 mph    
Visibility 10 miles    
Events      
Averages and records for this station are not official NWS values.
T = Trace of Precipitation, MM = Missing Value Source: NWS Daily Summary

Daily Weather History Graph

Daily Weather History Graph

Search for Another Location

Airport or City:

Trip Planner

Search our weather history database for the weather conditions in past years. The results will help you decide how hot, cold, wet, or windy it might be!

Date:

Astronomy

Mar. 09, 2012 Rise Set
Actual Time 6:47 AM CST 6:26 PM CST
Civil Twilight 6:19 AM CST 6:54 PM CST
Nautical Twilight 5:47 AM CST 7:26 PM CST
Astronomical Twilight 5:15 AM CST 7:58 PM CST
Moon 8:30 PM CST (3/9) 7:04 AM CST (3/9)
Length of Visible Light 12h 34m
Length of Day
11h 39m
Full, 97% of the Moon is Illuminated
Mar 9
Full
Mar 14
Last Quarter
Mar 22
New
Mar 30
First Quarter
Apr 6
Full

Hourly Weather History & Observations

Time (CST) Temp. Windchill Dew Point Humidity Pressure Visibility Wind Dir Wind Speed Gust Speed Precip Events Conditions
12:15 AM 38.1 °F 29.8 °F 16.3 °F 41% 30.41 in 10.0 mi West 13.8 mph - N/A   Clear
12:35 AM 37.6 °F 30.0 °F 17.6 °F 44% 30.42 in 10.0 mi West 11.5 mph - N/A   Clear
12:55 AM 32.5 °F 25.5 °F 16.7 °F 52% 30.44 in 10.0 mi NNW 8.1 mph - N/A   Clear
1:15 AM 32.0 °F 25.6 °F 16.9 °F 54% 30.45 in 10.0 mi NNW 6.9 mph - N/A   Clear
1:35 AM 31.8 °F 24.6 °F 17.1 °F 55% 30.46 in 10.0 mi NW 8.1 mph - N/A   Clear
1:55 AM 32.0 °F 24.2 °F 18.3 °F 57% 30.47 in 10.0 mi NNW 9.2 mph - N/A   Clear
2:15 AM 31.3 °F 23.3 °F 18.3 °F 59% 30.48 in 10.0 mi NNW 9.2 mph - N/A   Clear
2:35 AM 30.0 °F 21.7 °F 19.0 °F 64% 30.48 in 10.0 mi NNW 9.2 mph - N/A   Clear
2:55 AM 30.2 °F 25.4 °F 19.2 °F 64% 30.48 in 10.0 mi NNW 4.6 mph - N/A   Clear
3:15 AM 30.6 °F 24.7 °F 19.2 °F 63% 30.49 in 10.0 mi NNW 5.8 mph - N/A   Clear
3:35 AM 30.2 °F 24.3 °F 20.3 °F 67% 30.50 in 10.0 mi NNW 5.8 mph - N/A   Clear
3:55 AM 29.7 °F 24.7 °F 20.7 °F 69% 30.50 in 10.0 mi NNW 4.6 mph - N/A   Clear
4:15 AM 27.5 °F 20.2 °F 19.9 °F 73% 30.51 in 10.0 mi NNW 6.9 mph - N/A   Clear
4:35 AM 25.9 °F 18.2 °F 19.4 °F 76% 30.51 in 10.0 mi North 6.9 mph - N/A   Clear
4:55 AM 25.3 °F 18.5 °F 19.4 °F 78% 30.51 in 10.0 mi North 5.8 mph - N/A   Clear
5:15 AM 25.5 °F 17.8 °F 19.6 °F 78% 30.51 in 10.0 mi North 6.9 mph - N/A   Clear
5:35 AM 26.4 °F 20.9 °F 20.3 °F 78% 30.52 in 10.0 mi North 4.6 mph - N/A   Clear
5:55 AM 25.7 °F 20.1 °F 20.3 °F 80% 30.52 in 10.0 mi North 4.6 mph - N/A   Clear
6:15 AM 24.3 °F 17.3 °F 19.4 °F 82% 30.52 in 10.0 mi North 5.8 mph - N/A   Clear
6:35 AM 24.4 °F 17.5 °F 19.6 °F 82% 30.52 in 10.0 mi North 5.8 mph - N/A   Clear
6:55 AM 23.7 °F 16.6 °F 19.4 °F 84% 30.53 in 10.0 mi North 5.8 mph - N/A   Clear
7:15 AM 23.5 °F 19.1 °F 19.4 °F 84% 30.53 in 10.0 mi NNE 3.5 mph - N/A   Clear
7:35 AM 26.4 °F - 21.6 °F 82% 30.53 in 10.0 mi Calm Calm - N/A   Clear
7:55 AM 29.3 °F 24.3 °F 23.0 °F 77% 30.53 in 10.0 mi East 4.6 mph - N/A   Clear
8:15 AM 32.5 °F 26.2 °F 24.4 °F 72% 30.54 in 10.0 mi ESE 6.9 mph - N/A   Clear
8:35 AM 34.7 °F 26.9 °F 24.6 °F 67% 30.54 in 10.0 mi ESE 10.4 mph - N/A   Clear
8:55 AM 36.0 °F 27.5 °F 23.9 °F 62% 30.53 in 10.0 mi ESE 12.7 mph - N/A   Clear
9:15 AM 37.2 °F 30.0 °F 22.8 °F 56% 30.54 in 10.0 mi SE 10.4 mph - N/A   Clear
9:35 AM 38.5 °F 30.7 °F 21.4 °F 50% 30.54 in 10.0 mi ESE 12.7 mph - N/A   Clear
9:55 AM 40.3 °F 33.0 °F 21.9 °F 48% 30.53 in 10.0 mi SE 12.7 mph - N/A   Clear
10:15 AM 41.0 °F 35.2 °F 22.6 °F 48% 30.54 in 10.0 mi SE 9.2 mph 18.4 mph N/A   Clear
10:35 AM 42.4 °F 36.5 °F 22.1 °F 44% 30.53 in 10.0 mi ESE 10.4 mph - N/A   Clear
10:55 AM 43.9 °F 39.3 °F 22.6 °F 43% 30.52 in 10.0 mi SSE 8.1 mph - N/A   Clear
11:15 AM 45.1 °F 40.3 °F 23.0 °F 42% 30.51 in 10.0 mi SSE 9.2 mph - N/A   Clear
11:35 AM 47.1 °F - 24.3 °F 41% 30.50 in 10.0 mi SSE 11.5 mph - N/A   Clear
11:55 AM 49.1 °F - 23.2 °F 36% 30.49 in 10.0 mi SE 13.8 mph 18.4 mph N/A   Clear
12:15 PM 51.1 °F - 22.8 °F 33% 30.48 in 10.0 mi SSE 13.8 mph 19.6 mph N/A   Clear
12:35 PM 52.3 °F - 21.9 °F 30% 30.46 in 10.0 mi SE 13.8 mph 18.4 mph N/A   Clear
12:55 PM 54.7 °F - 21.9 °F 28% 30.44 in 10.0 mi South 12.7 mph 21.9 mph N/A   Clear
1:15 PM 56.3 °F - 21.6 °F 26% 30.43 in 10.0 mi South 11.5 mph 17.3 mph N/A   Clear
1:35 PM 57.4 °F - 21.0 °F 24% 30.41 in 10.0 mi South 16.1 mph 19.6 mph N/A   Clear
1:55 PM 58.6 °F - 20.3 °F 23% 30.39 in 10.0 mi South 16.1 mph 21.9 mph N/A   Clear
2:15 PM 60.1 °F - 20.3 °F 22% 30.38 in 10.0 mi South 17.3 mph 20.7 mph N/A   Clear
2:35 PM 61.2 °F - 19.8 °F 20% 30.36 in 10.0 mi South 16.1 mph 21.9 mph N/A   Clear
2:55 PM 62.8 °F - 19.0 °F 19% 30.35 in 10.0 mi SSW 11.5 mph 24.2 mph N/A   Clear
3:15 PM 63.7 °F - 16.9 °F 16% 30.34 in 10.0 mi SSW 15.0 mph - N/A   Clear
3:35 PM 64.9 °F - 16.0 °F 15% 30.32 in 10.0 mi SSW 12.7 mph 18.4 mph N/A   Clear
3:55 PM 65.3 °F - 14.5 °F 14% 30.31 in 10.0 mi SSW 13.8 mph 23.0 mph N/A   Clear
4:15 PM 65.3 °F - 14.0 °F 14% 30.30 in 10.0 mi SSW 19.6 mph 26.5 mph N/A   Clear
4:35 PM 65.3 °F - 14.2 °F 14% 30.29 in 10.0 mi SW 16.1 mph 23.0 mph N/A   Clear
4:55 PM 64.9 °F - 14.5 °F 14% 30.28 in 10.0 mi SSW 16.1 mph - N/A   Clear
5:15 PM 64.2 °F - 14.0 °F 14% 30.27 in 10.0 mi SSW 13.8 mph 21.9 mph N/A   Clear
5:35 PM 63.3 °F - 13.3 °F 14% 30.27 in 10.0 mi SSW 13.8 mph 23.0 mph N/A   Clear
5:55 PM 61.2 °F - 14.2 °F 16% 30.27 in 10.0 mi SSW 13.8 mph 21.9 mph N/A   Clear
6:15 PM 57.7 °F - 15.6 °F 19% 30.27 in 10.0 mi South 11.5 mph - N/A   Clear
6:35 PM 55.6 °F - 16.0 °F 21% 30.27 in 10.0 mi South 10.4 mph - N/A   Clear
6:55 PM 52.0 °F - 16.7 °F 25% 30.27 in 10.0 mi South 10.4 mph - N/A   Clear
7:15 PM 48.7 °F - 17.6 °F 29% 30.27 in 10.0 mi South 10.4 mph - N/A   Clear
7:35 PM 51.3 °F - 18.5 °F 27% 30.27 in 10.0 mi South 11.5 mph - N/A   Clear
7:55 PM 48.9 °F - 18.9 °F 30% 30.27 in 10.0 mi South 9.2 mph - N/A   Clear
8:15 PM 48.2 °F - 18.9 °F 31% 30.27 in 10.0 mi South 8.1 mph - N/A   Clear
8:35 PM 41.9 °F 36.9 °F 19.2 °F 40% 30.27 in 10.0 mi South 8.1 mph - N/A   Clear
8:55 PM 39.9 °F 34.5 °F 19.4 °F 44% 30.27 in 10.0 mi SSE 8.1 mph - N/A   Clear
9:15 PM 39.4 °F 33.2 °F 19.0 °F 44% 30.26 in 10.0 mi South 9.2 mph - N/A   Clear
9:35 PM 38.8 °F 32.6 °F 19.6 °F 46% 30.26 in 10.0 mi South 9.2 mph - N/A   Clear
9:55 PM 39.0 °F 32.8 °F 19.9 °F 46% 30.26 in 10.0 mi South 9.2 mph - N/A   Clear
10:15 PM 42.8 °F 36.6 °F 20.5 °F 41% 30.26 in 10.0 mi South 11.5 mph - N/A   Clear
10:35 PM 44.8 °F 38.7 °F 19.9 °F 37% 30.26 in 10.0 mi South 12.7 mph - N/A   Clear
10:55 PM 44.1 °F 38.1 °F 20.3 °F 39% 30.25 in 10.0 mi South 11.5 mph - N/A   Clear
11:15 PM 45.7 °F 39.1 °F 20.3 °F 37% 30.26 in 10.0 mi SSW 15.0 mph 20.7 mph N/A   Clear
11:35 PM 46.8 °F - 20.3 °F 35% 30.26 in 10.0 mi SSW 15.0 mph 23.0 mph N/A   Clear
11:55 PM 46.6 °F - 21.2 °F 37% 30.25 in 10.0 mi SSW 16.1 mph 20.7 mph N/A   Clear